Corstorphine, United Kingdom
Current Conditions -  °F | °C
As of 12:50 PM on Saturday 25 Oct 2014 (Local Time) from EGPH Reporting Station
Scattered Clouds Scattered Clouds  
Wind Chill: 55°   Ceiling: Unl
Heat Index: 55°   Visibility: 6mi
Dew Point: 46°   Wind: 30mph
Humidity: 72%   Direction: 230°SW
Pressure: 29.65"   Gusts: 41mph
Location:  55.95°N, 3.32°W
Report Text: EGPH 251150Z 23026G36KT 9999 SCT025 13/08 Q1004
Loading
Personal Weather Stations






























Interactive Weather Map New forecast layout! Learn more

10-Day Weather Forecast

Advertisements
Track Severe Weather on mobile